Total_Precipitation_Accumulation
1.75 2.21 2.76 3.60 4.68 5.58 5.86 5.37 4.90 4.58 4.16 3.78 3.22 2.87 2.92 2.81 2.51 2.24 1.96 1.88 1.82 1.90 2.06 1.88 2.07 1.92 1.98 2.07 2.14 2.25 2.24 2.15 2.22 2.40 2.34 1.98 1.71 1.64 1.60 1.68 1.91 1.82 1.80
1.91 2.63 3.66 4.23 4.47 4.60 4.37 4.04 3.80 3.61 3.16 2.84 2.67 2.45 2.50 2.25 2.08 2.01 2.03 1.71 1.62 1.69 1.66 1.88 1.89 1.87 2.04 2.08 2.03 2.13 2.11 1.95 1.99 2.25 2.47 2.15 1.97 1.61 1.20 1.32 1.34 1.44 1.74
2.10 2.90 3.47 3.59 3.30 3.00 2.92 2.86 2.93 2.69 2.59 2.61 2.54 2.47 2.52 2.24 2.00 1.91 1.95 1.64 1.44 1.46 1.54 1.62 1.70 1.88 1.81 1.95 2.00 1.92 1.98 2.01 1.97 1.99 2.31 2.27 2.08 1.77 1.31 1.14 1.20 1.37 1.58
1.63 2.06 2.30 2.19 2.30 2.45 2.46 2.57 2.65 2.40 2.39 2.37 2.11 2.05 2.02 1.90 1.78 1.75 1.80 1.88 1.55 1.38 1.36 1.42 1.52 1.68 1.63 1.84 1.67 1.79 1.98 2.04 1.91 1.86 1.78 1.82 1.89 2.00 1.72 1.35 1.19 1.32 1.39
1.01 1.13 1.26 1.42 1.62 1.73 1.90 2.19 2.44 2.38 2.22 2.07 2.03 2.11 1.99 1.95 1.94 1.96 1.98 2.01 1.81 1.56 1.38 1.45 1.53 1.59 1.54 1.59 1.61 1.94 1.95 1.86 1.78 1.75 1.76 1.76 1.74 1.70 1.75 1.59 1.37 1.30 1.11
0.87 0.90 0.97 1.12 1.28 1.40 1.56 1.81 2.14 2.28 2.20 2.05 1.97 2.03 2.10 2.08 2.01 2.00 1.97 1.78 1.69 1.64 1.48 1.49 1.53 1.46 1.44 1.46 1.51 1.77 1.79 1.83 1.89 1.85 1.73 1.78 1.72 1.66 1.78 1.56 1.35 1.24 0.91
0.91 0.97 0.93 0.91 0.97 1.11 1.26 1.36 1.58 1.87 1.97 1.93 1.91 1.94 2.10 2.03 1.86 1.75 1.68 1.62 1.44 1.38 1.40 1.46 1.57 1.42 1.39 1.47 1.65 1.74 1.74 1.78 1.80 1.73 1.65 1.62 1.45 1.53 1.61 1.51 1.29 1.23 0.99
0.81 0.83 0.83 0.81 0.78 0.86 1.04 1.18 1.40 1.59 1.79 1.81 1.79 1.83 1.92 1.85 1.72 1.73 1.55 1.50 1.43 1.37 1.46 1.50 1.49 1.45 1.43 1.43 1.72 1.65 1.64 1.71 1.66 1.56 1.76 1.67 1.40 1.53 1.58 1.63 1.76 1.59 1.38
0.62 0.74 0.79 0.88 0.87 0.85 0.97 1.11 1.35 1.57 1.76 1.87 1.90 1.85 1.85 1.87 1.84 1.78 1.58 1.42 1.54 1.45 1.55 1.58 1.52 1.51 1.62 1.74 1.88 1.76 1.76 1.82 1.67 1.68 1.88 1.75 1.58 1.58 1.54 1.70 1.92 2.00 1.72
0.67 0.86 1.00 0.98 0.82 0.70 0.78 0.97 1.20 1.51 1.71 1.89 1.89 1.77 1.91 1.86 1.86 1.81 1.68 1.52 1.50 1.49 1.60 1.72 1.68 1.71 1.73 1.84 1.92 1.78 1.86 1.86 1.75 1.79 1.95 1.91 1.77 1.75 1.66 1.70 1.86 2.07 2.01
0.75 0.90 1.08 1.03 0.81 0.70 0.69 0.83 1.14 1.40 1.56 1.68 1.76 1.70 1.68 1.62 1.64 1.68 1.68 1.64 1.61 1.54 1.56 1.64 1.66 1.63 1.68 1.77 1.85 1.73 1.78 1.76 1.78 1.77 1.83 1.84 1.97 1.97 1.89 2.00 2.05 2.12 2.23
0.80 0.75 0.87 1.00 0.94 0.81 0.74 0.92 1.19 1.37 1.44 1.48 1.46 1.46 1.51 1.51 1.46 1.44 1.50 1.55 1.48 1.42 1.48 1.53 1.50 1.44 1.55 1.70 1.73 1.66 1.73 1.77 1.73 1.81 1.95 1.87 1.94 2.00 2.06 2.22 2.12 2.19 2.47
0.60 0.60 0.72 0.83 0.98 0.95 0.90 1.03 1.18 1.27 1.32 1.24 1.22 1.24 1.28 1.29 1.30 1.32 1.38 1.47 1.49 1.49 1.46 1.43 1.36 1.37 1.45 1.53 1.54 1.63 1.75 1.80 1.82 1.91 1.99 2.03 2.21 2.11 2.15 2.20 2.14 2.19 2.44
0.64 0.61 0.66 0.82 0.94 1.00 0.99 0.98 1.06 1.20 1.21 1.14 1.22 1.33 1.37 1.41 1.43 1.42 1.48 1.58 1.64 1.59 1.59 1.57 1.59 1.61 1.58 1.58 1.64 1.73 1.80 1.82 1.87 2.02 2.05 2.08 2.16 2.22 2.36 2.35 2.41 2.56 2.74
0.67 0.65 0.72 0.88 0.96 1.11 1.14 1.10 1.10 1.15 1.23 1.30 1.41 1.59 1.75 1.79 1.69 1.67 1.76 1.84 1.88 1.82 1.94 1.91 1.89 1.94 1.90 1.71 1.84 1.91 1.86 1.96 1.90 1.98 2.03 2.01 2.13 2.20 2.30 2.23 2.42 2.73 2.92
0.65 0.60 0.70 0.89 0.91 0.92 0.99 0.99 1.02 1.05 1.08 1.18 1.33 1.55 1.75 1.87 1.87 1.92 2.03 2.06 2.02 2.13 2.21 2.13 2.10 2.08 1.84 1.95 2.02 2.01 2.08 2.11 2.06 2.07 2.10 2.08 2.07 1.99 2.01 2.08 2.21 2.40 2.59
0.63 0.66 0.69 0.79 0.95 0.87 0.84 0.93 1.01 1.12 1.22 1.40 1.59 1.71 1.87 2.00 2.03 2.00 2.03 2.08 2.11 2.09 2.14 2.14 2.17 2.05 1.99 1.99 1.84 1.87 1.90 2.02 2.07 2.11 2.13 1.95 1.82 1.87 1.77 1.91 1.97 1.94 1.99
0.82 0.89 0.97 0.96 1.04 1.01 0.98 1.04 1.09 1.22 1.28 1.36 1.53 1.66 1.85 1.98 2.05 2.14 2.19 2.26 2.33 2.34 2.33 2.27 2.25 2.21 2.07 1.96 1.80 1.88 1.78 1.83 1.87 1.92 1.95 1.93 1.83 1.82 1.90 1.90 1.77 1.60 1.55
0.91 0.99 1.05 1.11 1.10 1.17 1.23 1.31 1.30 1.42 1.55 1.57 1.74 1.88 1.98 2.11 2.18 2.22 2.34 2.45 2.53 2.50 2.50 2.47 2.46 2.45 2.43 2.36 2.07 1.99 1.83 1.87 1.86 1.87 1.87 1.84 1.71 1.84 1.80 1.73 1.72 1.60 1.49
1.02 1.09 1.05 1.05 1.19 1.26 1.34 1.44 1.59 1.72 1.87 1.95 2.01 2.09 2.20 2.27 2.26 2.28 2.36 2.39 2.42 2.43 2.45 2.39 2.45 2.42 2.43 2.50 2.22 2.01 1.77 1.80 1.83 1.92 1.93 1.94 1.78 1.85 1.80 1.75 1.76 1.65 1.55
1.20 1.16 1.13 1.17 1.24 1.25 1.33 1.50 1.69 1.84 1.91 1.97 2.05 2.15 2.25 2.45 2.56 2.59 2.47 2.33 2.32 2.39 2.49 2.49 2.54 2.54 2.47 2.43 2.08 1.94 1.84 1.90 1.93 1.88 1.83 1.84 1.84 1.67 1.57 1.51 1.51 1.56 1.59
1.29 1.29 1.28 1.26 1.29 1.38 1.44 1.55 1.72 1.84 1.92 1.93 2.05 2.17 2.24 2.25 2.30 2.56 2.62 2.57 2.48 2.40 2.43 2.51 2.46 2.37 2.32 2.19 1.89 1.65 1.63 1.71 1.72 1.70 1.67 1.66 1.62 1.42 1.28 1.14 1.11 1.18 1.18
1.20 1.23 1.27 1.32 1.37 1.43 1.54 1.67 1.74 1.82 1.87 1.99 2.16 2.31 2.38 2.42 2.39 2.42 2.50 2.47 2.39 2.25 2.11 2.17 2.21 2.20 2.21 2.08 1.77 1.47 1.37 1.40 1.35 1.42 1.62 1.61 1.47 1.34 1.25 1.18 1.10 1.02 0.94
1.26 1.29 1.29 1.31 1.45 1.58 1.72 1.74 1.74 1.83 2.01 2.09 2.16 2.22 2.27 2.30 2.34 2.47 2.40 2.33 2.32 2.25 2.07 2.09 2.13 2.15 2.13 1.98 1.73 1.55 1.45 1.40 1.33 1.36 1.53 1.61 1.59 1.50 1.40 1.29 1.12 0.95 0.93
1.25 1.31 1.39 1.41 1.49 1.58 1.71 1.80 1.83 1.88 1.96 1.93 1.87 1.96 2.07 2.12 2.13 2.29 2.36 2.18 2.08 2.13 2.03 2.09 2.25 2.19 1.99 1.83 1.67 1.48 1.44 1.44 1.49 1.50 1.59 1.70 1.73 1.71 1.60 1.44 1.29 1.18 1.13
1.24 1.33 1.38 1.46 1.51 1.54 1.61 1.65 1.71 1.81 1.92 1.97 1.94 1.93 1.97 2.03 2.06 2.05 2.09 2.05 1.82 1.77 1.69 1.73 1.81 1.86 1.76 1.65 1.56 1.47 1.43 1.37 1.38 1.38 1.52 1.79 1.86 1.87 1.84 1.73 1.55 1.40 1.31